West Plains, MO

10:09 AM CDT on June 26, 2017 (GMT -0500)
West Plains Municipal

Weather History for KUNO - October, 2013

Change the Weather History Date:

Wednesday, October 16, 2013

  Actual Average Record
Temperature  
Mean Temperature 55 °F 57 °F  
Max Temperature 64 °F 70 °F 88 °F (1950)
Min Temperature 46 °F 45 °F 27 °F (1952)
Degree Days  
Heating Degree Days 10 8  
Month to date heating degree days 69 104  
Since 1 July heating degree days 89 146  
Cooling Degree Days 0 1  
Month to date cooling degree days 34 20  
Year to date cooling degree days 1072 1348  
Growing Degree Days 4 (Base 50)    
Moisture  
Dew Point 44 °F    
Average Humidity 65    
Maximum Humidity 82    
Minimum Humidity 48    
Precipitation  
Precipitation 0.06 in 0.13 in 3.74 in (2006)
Month to date precipitation 1.59 1.92  
Year to date precipitation 45.47 36.08  
Sea Level Pressure  
Sea Level Pressure 30.03 in    
Wind  
Wind Speed 5 mph (NNW)    
Max Wind Speed 13 mph    
Max Gust Speed 16 mph    
Visibility 10 miles    
Events Rain    
T = Trace of Precipitation, MM = Missing Value Source: NWS Daily Summary

Daily Weather History Graph

Daily Weather History Graph

Search for Another Location

Airport or City:

Trip Planner

Search our weather history database for the weather conditions in past years. The results will help you decide how hot, cold, wet, or windy it might be!

Date:

Astronomy

Oct. 16, 2013 Rise Set
Actual Time 7:16 AM CDT 6:29 PM CDT
Civil Twilight 6:50 AM CDT 6:55 PM CDT
Nautical Twilight 6:20 AM CDT 7:25 PM CDT
Astronomical Twilight 5:49 AM CDT 7:55 PM CDT
Moon 5:06 PM CDT (10/16) 4:47 AM CDT (10/16)
Length of Visible Light 12h 05m
Length of Day
11h 12m
Waxing Gibbous, 94% of the Moon is Illuminated
Oct 16
Waxing Gibbous
Oct 18
Full
Oct 26
Last Quarter
Nov 3
New
Nov 9
First Quarter

Hourly Weather History & Observations

Time (CDT) Temp. Dew Point Humidity Pressure Visibility Wind Dir Wind Speed Gust Speed Precip Events Conditions
12:53 AM 53.1 °F 48.9 °F 86% 30.02 in 10.0 mi West 3.5 mph - 0.00 in Rain Light Rain
1:53 AM 53.1 °F 48.9 °F 86% 30.05 in 10.0 mi West 4.6 mph - 0.00 in   Overcast
2:53 AM 52.0 °F 48.9 °F 89% 30.05 in 9.0 mi NW 5.8 mph - 0.01 in Rain Light Rain
3:53 AM 51.1 °F 46.9 °F 86% 30.05 in 10.0 mi NNW 5.8 mph - 0.05 in Rain Light Rain
4:53 AM 50.0 °F 45.0 °F 83% 30.04 in 10.0 mi North 5.8 mph - 0.00 in   Overcast
5:53 AM 48.9 °F 43.0 °F 80% 30.02 in 10.0 mi North 5.8 mph - N/A   Overcast
6:53 AM 48.0 °F 42.1 °F 80% 30.04 in 10.0 mi NNW 3.5 mph - N/A   Overcast
7:53 AM 46.9 °F 41.0 °F 80% 30.06 in 10.0 mi NNW 5.8 mph - N/A   Mostly Cloudy
8:53 AM 48.0 °F 41.0 °F 77% 30.06 in 10.0 mi NNW 5.8 mph - N/A   Partly Cloudy
9:53 AM 54.0 °F 43.0 °F 66% 30.07 in 10.0 mi NNW 4.6 mph - N/A   Clear
10:53 AM 55.9 °F 43.0 °F 62% 30.06 in 10.0 mi NNW 6.9 mph - N/A   Clear
11:53 AM 57.9 °F 43.0 °F 58% 30.06 in 10.0 mi NW 6.9 mph - N/A   Clear
12:53 PM 60.1 °F 44.1 °F 55% 30.04 in 10.0 mi NNW 6.9 mph - N/A   Clear
1:53 PM 61.0 °F 42.1 °F 50% 30.01 in 10.0 mi WNW 9.2 mph - N/A   Clear
2:53 PM 63.0 °F 43.0 °F 48% 29.99 in 10.0 mi Variable 3.5 mph - N/A   Clear
3:53 PM 63.0 °F 43.0 °F 48% 29.98 in 10.0 mi North 6.9 mph - N/A   Clear
4:53 PM 62.1 °F 42.1 °F 48% 29.98 in 10.0 mi North 4.6 mph - N/A   Mostly Cloudy
5:53 PM 60.1 °F 43.0 °F 53% 29.99 in 10.0 mi NNW 3.5 mph - N/A   Clear
6:53 PM 55.0 °F 46.0 °F 72% 30.00 in 10.0 mi Calm Calm - N/A   Mostly Cloudy
7:53 PM 54.0 °F 46.9 °F 77% 30.00 in 10.0 mi Calm Calm - N/A   Overcast
8:53 PM 54.0 °F 46.0 °F 75% 30.02 in 10.0 mi NNW 4.6 mph - N/A   Overcast
9:53 PM 53.1 °F 44.1 °F 71% 30.02 in 10.0 mi NNW 6.9 mph - 0.00 in   Overcast
10:53 PM 51.1 °F 43.0 °F 74% 30.01 in 10.0 mi North 4.6 mph - N/A   Mostly Cloudy
11:53 PM 50.0 °F 43.0 °F 77% 30.02 in 10.0 mi NNW 3.5 mph - N/A   Overcast